Wind_Speed
13 12 12 12 11 11 11 11 12 12 12 12 13 14 15 15 14 13 13 13 13 12 11 10 10 10 11 11 12 13 15 16 15 16 21 20 12 11 13 9 8 11 11 8 8 9 8 8 12 12 8 7 11 14 14 15 18 13 5 3 5 4 7 6 3 6 2 1 2 4 6 4 6 8 8 6 25 33 29 33 32 29 30 30 31 31 29 26
12 12 13 12 12 11 11 11 12 12 12 12 13 14 14 13 13 13 13 13 12 12 11 10 10 10 10 10 11 12 15 16 17 22 25 19 12 13 14 13 10 10 11 11 10 10 9 7 8 9 9 12 13 14 14 13 15 9 3 4 6 5 8 9 9 5 6 3 4 3 1 2 9 10 9 6 16 28 21 24 33 34 31 31 31 28 26 25
12 11 12 12 12 12 11 12 12 12 12 12 13 14 14 13 13 13 13 12 12 12 11 11 10 10 10 9 9 11 13 15 19 27 26 18 16 16 14 15 14 11 11 12 11 10 10 9 7 8 13 15 15 17 15 12 13 10 6 4 6 7 9 14 13 3 11 7 6 6 5 5 5 11 13 8 9 21 15 18 26 27 28 29 26 25 25 24
13 12 12 12 12 12 11 12 12 12 13 13 13 14 14 13 13 13 12 12 12 12 11 10 10 9 10 9 8 9 10 11 16 22 21 17 19 18 15 14 14 13 13 11 12 12 12 14 12 13 15 13 17 18 14 13 11 9 8 6 7 7 6 17 13 5 8 8 8 9 5 6 8 10 13 9 6 10 12 24 30 29 30 29 25 23 24 23
13 13 13 13 12 12 12 12 12 13 13 13 13 13 14 13 12 12 12 12 11 12 11 10 9 9 10 8 8 7 4 5 6 9 11 12 15 17 16 14 14 14 14 13 14 15 14 16 16 16 15 10 13 13 12 18 15 6 9 12 13 9 6 21 17 5 7 5 7 9 7 7 7 4 3 8 5 7 17 29 35 34 33 29 27 24 23 23
14 14 14 13 13 12 12 13 13 13 13 14 14 13 13 13 12 11 12 12 11 12 11 10 9 9 10 8 8 7 4 1 2 1 1 5 9 14 16 16 16 15 16 16 16 17 15 15 15 15 13 8 8 8 10 19 18 6 8 11 15 15 12 19 12 8 8 5 7 5 6 10 7 3 9 20 17 24 31 33 36 34 31 28 28 26 24 22
16 15 14 14 14 13 13 13 13 14 13 14 15 14 13 13 12 11 13 12 12 12 10 10 8 10 10 9 10 9 11 9 5 5 4 4 5 10 14 17 19 18 18 18 19 18 15 14 16 15 9 6 8 9 13 17 17 9 6 8 14 16 16 16 4 11 6 4 9 4 3 9 4 2 12 27 30 37 35 34 36 32 30 28 28 27 24 23
17 16 15 15 15 15 15 14 13 14 14 15 16 14 13 13 13 12 13 13 13 11 10 10 8 10 10 9 9 7 16 17 8 3 3 2 3 6 11 16 19 21 21 20 22 20 15 14 18 16 7 5 10 10 15 14 11 9 6 8 13 15 16 16 3 11 5 4 10 7 2 7 6 3 10 26 34 39 35 35 35 31 31 29 29 27 25 25
17 17 17 16 15 15 16 16 15 14 14 15 15 14 14 13 13 13 12 13 12 11 10 9 8 10 9 8 4 5 19 21 11 6 9 8 8 9 11 14 18 22 23 21 24 22 15 16 18 17 9 8 12 12 16 10 6 10 10 12 11 15 16 12 7 12 5 6 11 6 2 8 11 6 7 26 35 37 38 36 34 32 32 30 29 26 25 25
17 17 17 17 16 16 17 17 16 15 14 15 15 14 13 14 14 13 13 12 12 11 9 8 9 9 8 6 1 5 16 17 12 11 8 8 9 9 11 12 16 21 24 23 25 24 19 17 17 17 14 12 12 12 15 9 5 13 18 16 13 16 15 8 5 9 7 6 7 5 4 10 11 5 6 26 36 38 38 35 34 34 32 31 29 26 24 23
17 17 17 17 17 17 17 18 17 15 15 15 15 14 13 14 14 13 13 12 11 10 9 9 9 9 10 5 4 8 8 6 10 12 7 8 9 8 9 12 13 18 24 24 25 26 23 19 17 16 12 10 11 12 15 13 13 13 11 10 11 16 15 9 6 6 4 4 6 8 7 9 9 6 7 26 36 37 38 35 34 33 33 31 28 27 24 23
18 17 17 17 17 18 17 17 17 16 15 15 15 14 14 14 13 13 13 12 11 11 10 9 8 9 9 8 15 17 11 10 10 10 8 10 12 8 6 10 11 13 20 24 25 25 23 20 19 19 12 8 8 7 11 13 16 17 10 5 6 10 9 9 7 7 5 4 12 13 6 6 6 8 9 23 35 37 37 34 34 33 32 30 27 27 24 23
18 17 17 17 16 17 17 16 16 15 14 15 15 14 14 14 13 12 12 12 11 11 10 9 8 9 7 12 23 23 15 10 7 8 9 10 15 13 8 10 11 10 13 20 22 22 22 20 20 24 21 13 7 7 9 10 10 12 7 5 3 4 4 7 8 9 9 8 16 12 2 6 5 9 11 19 35 39 34 30 32 32 30 29 27 26 22 20
20 18 18 17 16 16 17 16 15 15 15 15 16 15 15 14 12 11 11 12 11 11 11 8 8 8 7 15 25 24 21 18 13 10 11 8 14 16 13 13 14 13 12 14 17 17 18 18 20 24 24 19 14 12 11 7 6 6 4 3 3 1 3 7 8 9 8 10 19 11 2 6 7 7 9 24 38 38 29 27 29 29 29 28 27 26 23 20
20 20 18 17 16 16 16 17 16 16 15 15 16 16 14 11 11 10 11 12 11 10 8 6 6 6 7 17 23 21 23 26 23 16 12 7 11 13 15 15 15 16 15 15 16 17 18 19 22 20 19 20 18 11 6 4 5 3 4 4 2 3 4 7 9 10 7 9 18 11 2 6 6 7 16 29 38 35 27 26 27 28 29 28 28 27 24 21
18 19 18 17 17 16 16 17 17 16 16 16 16 14 11 9 9 10 11 11 10 7 5 3 4 4 5 13 16 15 18 23 24 20 13 11 12 12 13 14 15 15 14 15 16 18 20 21 22 21 16 14 10 4 2 4 5 2 5 3 2 5 4 6 8 13 12 8 11 9 4 5 5 10 18 30 38 33 27 25 26 29 28 28 28 27 25 22
19 19 18 17 17 16 16 17 17 16 16 16 16 12 6 6 8 8 8 8 5 4 5 2 2 4 10 13 14 16 19 19 22 25 20 17 16 15 13 14 16 16 15 15 16 18 19 19 17 15 13 8 3 3 2 4 5 3 3 4 3 5 6 5 6 12 14 8 7 8 4 4 4 12 19 34 39 31 27 26 27 28 27 27 26 24 23 21
20 19 20 18 17 17 16 17 17 16 16 16 16 9 2 7 10 9 5 2 1 1 3 4 1 3 11 18 19 20 22 22 25 28 25 20 18 17 17 16 15 16 16 15 17 19 17 15 11 6 7 6 3 5 4 5 6 4 4 5 5 5 7 7 7 11 13 9 7 8 5 4 3 8 14 29 36 31 28 27 27 27 25 25 24 23 22 21
21 21 21 19 19 18 16 17 17 16 15 15 15 7 4 8 11 12 8 2 4 4 1 9 15 6 6 13 18 19 20 21 22 25 28 26 20 18 19 18 16 17 15 10 12 18 13 8 8 6 6 6 6 6 6 7 9 9 8 7 7 7 7 7 9 12 13 11 8 8 7 2 7 8 11 21 29 30 27 25 27 26 26 26 24 24 21 21
21 22 21 20 19 18 16 16 16 15 14 14 14 8 6 6 5 7 7 9 13 14 9 11 23 21 17 17 13 10 12 19 20 24 28 29 25 21 21 21 18 16 12 5 8 16 14 6 7 8 6 7 9 9 9 10 13 12 7 8 10 8 9 8 10 14 13 9 8 8 8 5 13 12 15 25 27 23 23 23 24 24 24 25 25 24 21 21
21 21 21 20 18 18 17 16 16 14 13 14 13 8 9 10 5 1 4 10 16 20 21 19 21 25 29 29 22 16 13 16 20 24 24 29 29 21 21 21 13 9 9 8 9 13 13 7 6 7 6 7 9 11 12 13 14 13 6 5 7 8 10 11 11 17 13 8 7 8 10 10 15 13 14 24 21 16 20 22 21 23 23 24 24 22 21 21
21 21 21 20 18 17 18 17 16 13 13 15 14 14 17 16 11 5 6 11 15 18 23 26 25 28 34 36 30 23 19 17 19 25 25 29 31 20 18 18 9 6 8 10 8 8 8 7 7 7 6 8 10 11 13 14 12 10 7 4 5 7 9 8 11 18 12 6 7 9 12 10 14 15 14 20 18 17 23 24 22 22 22 22 21 20 21 21
20 20 20 21 19 17 18 17 15 14 15 16 17 21 20 14 13 9 14 14 14 16 21 25 27 30 37 38 30 23 21 19 16 27 31 29 30 24 18 13 9 8 10 11 8 7 6 5 8 9 9 11 12 11 13 13 10 7 6 4 5 8 7 4 11 20 14 5 9 13 12 7 10 14 13 17 20 21 25 26 24 23 22 21 20 21 21 20
18 19 19 19 18 17 16 15 15 15 14 16 21 21 15 9 6 6 14 13 10 14 20 25 26 28 35 34 24 17 19 22 16 25 34 30 29 25 17 13 11 9 11 13 11 9 6 6 11 12 12 14 13 12 12 10 7 6 8 7 7 11 9 4 10 16 11 6 13 16 9 3 5 10 11 13 18 19 20 22 22 21 21 22 22 23 22 20
16 17 18 16 16 16 14 14 15 12 12 17 15 8 5 7 5 3 12 10 6 11 17 21 23 27 35 30 22 21 20 21 17 22 32 33 30 22 14 15 13 8 11 15 13 9 7 11 16 14 13 15 13 11 11 9 6 6 8 10 12 14 9 4 11 12 7 4 10 13 6 2 1 8 9 8 11 13 14 17 17 16 18 19 21 22 21 20
14 16 17 15 14 14 13 12 9 6 10 14 6 5 1 6 2 6 8 4 3 7 10 15 16 18 25 23 22 23 17 15 18 18 25 30 30 23 13 12 11 9 12 12 9 5 6 13 18 15 14 15 13 11 11 10 6 5 6 10 14 15 11 4 7 10 5 5 9 10 7 2 2 4 7 8 10 10 11 12 13 14 15 16 18 19 20 19
13 15 16 14 14 14 13 8 4 5 11 11 7 7 7 4 5 8 4 2 4 7 10 17 15 11 17 21 23 18 6 7 18 21 23 27 28 26 14 7 8 9 10 9 6 5 8 13 15 16 15 12 11 10 10 10 6 4 6 10 12 11 10 8 4 8 5 7 9 9 10 5 3 5 8 10 11 10 8 8 9 13 15 16 18 18 18 18
11 13 14 14 14 14 13 9 7 10 13 11 7 7 7 7 9 7 4 3 2 7 8 15 16 11 16 23 27 18 8 10 13 20 27 27 28 24 13 8 9 10 11 9 6 7 9 13 12 16 14 9 9 9 10 10 7 5 7 9 9 7 9 8 4 6 6 7 8 7 9 6 3 6 9 10 11 9 8 7 8 12 14 16 18 18 18 18
8 10 11 12 12 13 13 12 13 12 11 8 2 6 2 11 11 4 2 4 3 6 7 14 16 13 15 20 23 21 16 11 11 16 25 29 31 23 10 12 10 9 13 10 7 7 10 16 14 14 12 8 9 10 11 12 7 5 9 10 6 7 7 5 3 2 5 6 7 9 10 6 1 5 8 8 8 9 9 7 8 13 16 16 18 18 17 17
6 8 9 10 11 11 10 12 13 9 8 6 4 8 1 10 7 1 3 4 3 5 9 13 14 13 16 15 14 18 16 11 11 17 21 27 35 25 13 18 15 7 10 9 9 9 11 19 17 11 11 10 10 10 13 14 7 7 10 9 6 7 3 2 1 2 4 3 6 10 12 7 2 5 7 5 6 11 11 9 10 14 17 17 17 18 17 17
6 8 9 10 10 8 7 10 8 8 9 6 4 5 1 6 1 3 5 4 3 5 8 9 11 11 15 13 11 13 12 10 10 13 13 17 24 19 11 14 12 5 7 7 9 12 11 15 12 9 13 15 11 10 12 13 8 7 8 6 3 6 1 2 2 4 3 5 5 8 9 7 4 5 6 5 8 13 13 11 14 15 17 18 17 18 17 18
5 7 8 10 10 9 10 9 5 8 11 6 3 2 4 4 2 5 4 6 1 5 6 9 10 10 13 13 11 13 11 9 9 10 10 9 11 11 8 7 5 5 7 6 7 10 9 9 10 10 13 15 11 6 9 10 7 7 6 5 4 3 1 2 2 2 3 5 5 7 5 5 2 2 3 9 13 13 13 15 19 19 19 18 18 18 18 17
5 7 9 11 11 13 13 10 5 6 7 6 2 2 3 2 4 5 6 5 0 2 4 9 11 10 13 12 10 13 12 10 10 9 10 9 8 9 10 9 7 6 5 5 5 6 6 6 12 12 9 14 14 6 6 7 6 8 6 5 6 3 3 4 3 2 2 2 6 8 6 3 1 3 4 9 14 17 20 21 22 22 21 20 19 19 18 17
6 9 11 11 12 14 13 11 9 5 6 8 5 2 3 4 4 4 5 5 5 7 4 10 11 11 12 11 9 12 11 9 11 9 10 10 7 7 10 12 13 8 3 5 5 6 6 6 11 13 6 10 14 8 7 6 5 7 6 5 4 4 5 4 3 4 2 2 4 5 4 1 2 2 5 11 18 22 25 24 23 22 21 21 20 19 18 17
5 7 9 10 13 14 12 13 10 6 5 7 4 2 5 4 1 1 2 4 6 8 7 3 8 10 9 9 10 12 11 8 10 9 9 10 7 8 10 10 13 10 5 6 4 5 8 5 7 12 8 9 10 6 7 7 4 4 4 5 6 5 5 3 4 5 4 2 1 3 3 2 3 4 8 13 17 20 24 24 23 21 20 21 20 18 18 17
6 6 8 10 12 10 10 12 7 7 3 4 3 3 6 3 2 3 4 6 7 8 11 9 4 8 6 6 9 12 12 8 9 8 7 9 8 9 10 8 11 11 7 6 3 4 7 4 6 11 7 9 12 7 4 6 4 4 4 5 6 5 5 4 2 3 5 3 0 0 3 5 4 3 7 11 13 15 19 21 21 20 19 19 18 17 17 17
5 6 9 11 10 7 9 10 7 6 2 3 3 4 4 4 6 6 6 8 8 8 8 5 3 6 6 5 6 11 13 8 8 6 6 8 8 9 12 11 12 14 11 7 4 4 6 2 7 13 7 6 13 7 5 6 5 5 6 5 3 4 4 5 2 1 4 3 1 2 5 7 4 2 6 11 13 13 14 16 18 19 18 17 17 17 16 16
4 7 12 13 9 8 10 9 8 4 2 1 4 5 4 5 7 9 11 11 8 6 4 1 3 4 6 6 6 9 12 8 7 6 6 7 6 10 14 11 13 16 16 12 6 3 6 2 4 12 10 6 9 6 6 11 12 6 6 6 5 4 5 3 3 3 4 3 2 4 6 6 4 4 8 12 13 13 13 15 16 16 16 17 17 16 15 15
5 7 9 8 10 12 11 10 9 6 3 1 3 4 4 6 10 14 15 13 7 5 3 1 2 4 1 4 6 9 12 9 7 5 5 6 5 11 15 10 11 17 18 14 7 2 5 4 1 7 11 8 6 6 6 9 11 7 4 6 6 5 4 4 4 4 5 4 3 5 5 3 2 5 11 12 11 13 14 12 12 15 17 17 17 16 16 15
6 5 5 5 13 15 13 12 9 5 2 2 4 4 6 8 11 16 16 11 6 2 2 2 3 4 5 4 3 3 11 12 8 4 5 7 6 9 15 12 9 15 19 16 7 3 4 4 1 5 11 9 5 6 8 6 5 5 4 5 5 4 4 4 3 3 5 4 4 4 3 3 1 2 9 13 12 13 14 12 12 16 18 17 18 17 15 15
4 3 2 7 13 16 16 10 5 3 1 3 4 6 8 8 10 14 16 12 6 3 5 5 4 3 4 5 6 5 5 10 9 5 3 9 8 5 12 15 11 13 17 13 7 4 3 4 2 4 8 8 5 7 10 7 6 5 4 5 6 5 5 4 3 3 3 4 5 5 3 2 1 2 2 9 11 11 15 16 15 18 20 19 18 17 15 15
2 2 3 11 14 17 17 7 2 4 3 4 6 9 10 10 10 10 12 12 9 7 8 4 4 5 4 4 5 6 4 5 10 7 3 9 10 5 12 21 18 14 12 8 7 6 4 5 4 3 4 6 5 9 13 11 8 6 6 5 5 5 6 5 3 4 3 3 4 4 3 2 1 3 2 6 13 17 19 20 19 19 20 20 18 17 16 15
2 2 6 17 18 17 13 2 3 5 4 6 11 13 14 12 9 7 8 10 9 8 6 3 6 6 2 4 4 5 5 2 7 9 6 8 10 10 15 23 21 14 10 6 6 6 4 4 4 3 2 4 6 8 12 11 8 6 6 6 5 5 6 6 4 3 3 3 4 3 2 1 3 3 5 15 21 22 21 22 22 20 20 20 18 16 16 16
4 3 5 18 21 16 8 1 2 3 4 8 10 12 13 13 9 5 6 9 9 5 3 1 4 4 3 4 3 4 3 1 5 8 6 6 9 16 21 24 22 13 8 8 7 6 5 2 4 4 2 4 7 5 7 9 8 3 3 5 5 6 8 6 4 2 2 2 7 5 1 1 2 1 12 18 19 19 20 22 23 22 20 19 18 17 17 17
4 2 5 14 19 14 8 6 3 3 5 7 8 9 10 10 7 5 7 11 13 9 2 1 2 1 3 4 4 5 3 1 3 6 5 4 7 14 20 25 22 12 10 15 13 8 6 3 4 6 4 6 7 5 5 6 5 3 2 5 6 8 9 6 4 3 3 2 7 6 4 3 2 6 12 13 14 16 18 21 23 22 21 19 18 17 16 15
4 1 3 7 12 12 12 12 8 5 4 5 6 7 7 7 6 9 11 12 14 10 4 2 2 1 3 5 4 3 4 5 4 5 7 4 3 5 13 20 22 17 15 20 19 9 3 2 5 6 5 5 5 3 3 6 5 6 6 6 7 8 8 6 5 4 5 3 4 4 12 12 8 10 13 12 13 14 14 19 22 21 21 20 19 18 16 15
3 1 1 4 6 7 10 13 10 6 5 5 3 3 6 8 7 8 10 8 6 5 3 3 4 1 1 4 4 2 6 7 4 7 9 5 2 2 9 13 18 21 18 17 19 10 3 2 6 5 2 2 2 2 2 4 8 9 8 6 5 7 8 6 5 5 8 5 2 5 17 18 12 13 15 13 13 12 13 19 21 22 23 22 20 19 18 17
2 4 3 2 4 4 4 7 7 5 6 7 4 1 5 8 6 4 6 5 5 6 4 2 3 3 3 5 4 3 6 6 4 6 7 2 2 3 5 4 7 15 14 11 11 7 4 2 5 4 3 3 3 4 6 4 3 9 11 10 6 5 6 5 3 5 8 6 6 12 17 16 14 15 14 14 15 15 17 21 23 23 24 23 22 21 20 19
3 5 6 3 2 3 2 6 5 4 5 5 2 1 4 8 6 4 4 4 4 5 4 3 4 4 5 6 5 3 4 4 2 4 5 5 5 2 1 3 2 8 12 8 3 4 5 1 1 5 5 4 5 5 7 9 6 3 3 4 1 6 7 7 5 7 10 9 12 17 15 11 11 12 12 16 20 22 23 24 23 23 23 23 23 22 20 19
6 4 7 7 5 3 5 7 5 2 3 3 2 4 6 7 6 4 6 5 3 3 3 4 4 5 7 9 8 5 4 2 1 2 4 5 5 4 3 3 2 2 6 6 3 5 6 1 1 6 5 4 6 7 8 10 12 12 11 9 9 13 13 11 10 12 15 13 13 17 13 7 7 12 16 20 24 25 24 24 23 22 23 24 24 22 21 20
7 5 6 6 4 4 6 5 3 2 2 2 2 3 4 5 6 7 7 7 6 5 5 5 5 5 6 8 7 4 8 5 2 4 6 3 3 6 5 2 3 3 1 3 3 5 6 1 2 5 5 3 5 5 5 8 12 13 12 12 9 8 9 8 6 6 11 16 16 14 9 5 7 14 18 20 23 23 22 23 23 21 23 25 24 24 23 21
8 6 8 7 3 3 4 3 2 2 2 2 3 5 5 6 7 7 5 5 7 8 8 8 4 3 4 4 2 5 11 8 5 7 7 4 7 9 5 4 7 4 1 2 3 4 5 4 2 4 5 1 5 4 1 3 6 6 5 6 5 4 10 11 9 8 12 17 14 9 8 8 11 15 15 15 17 19 21 23 23 23 26 26 24 24 23 22
Wind_Direction
319 321 323 322 323 323 323 322 320 318 316 315 312 309 307 307 303 297 291 281 274 270 264 258 250 250 254 259 265 268 272 270 263 254 248 247 235 215 214 202 197 211 211 201 199 190 178 196 198 186 193 239 251 253 255 256 252 238 208 214 248 244 247 255 255 280 310 49 332 164 168 142 158 164 203 171 98 95 88 87 95 104 110 122 130 135 137 138
315 319 321 321 322 321 321 321 322 321 317 316 313 312 311 309 307 301 294 283 274 269 261 256 251 250 253 255 262 271 274 273 272 259 245 242 236 220 212 205 191 187 196 196 199 189 181 205 202 191 216 239 241 239 244 246 244 234 166 205 230 239 252 272 271 298 34 357 355 67 31 102 175 163 160 189 104 101 94 94 99 99 106 117 126 133 135 139
310 314 317 318 319 318 318 318 322 320 316 316 313 314 312 309 309 306 298 285 274 267 260 254 251 251 252 251 259 272 278 281 279 264 247 237 237 227 215 213 201 188 194 197 201 183 184 218 219 209 221 235 240 236 233 230 237 225 209 233 228 238 256 275 276 16 39 22 17 3 354 49 111 139 152 196 127 115 118 118 111 108 115 119 125 133 134 133
305 307 311 314 315 315 316 317 320 317 318 318 316 316 313 310 308 306 301 290 277 267 258 251 249 248 248 247 254 266 286 299 286 271 258 241 233 229 224 218 209 205 200 197 202 189 199 230 232 219 216 230 237 237 235 216 217 208 206 234 248 256 271 282 288 81 54 27 16 356 356 21 59 125 162 180 138 121 132 132 129 126 125 124 126 130 128 125
300 302 306 310 311 312 313 316 316 317 320 320 318 316 315 314 306 304 300 291 280 269 257 246 243 241 243 239 246 250 290 331 301 282 267 238 224 224 223 218 214 209 204 203 204 199 210 234 242 230 216 228 235 234 241 219 210 206 224 234 251 271 287 284 296 89 111 58 358 10 359 334 74 110 120 106 107 122 132 129 127 129 129 127 125 125 122 121
295 297 301 306 307 307 309 312 314 316 320 322 321 316 315 313 305 302 295 291 283 271 256 244 236 233 235 228 234 225 205 200 111 92 224 199 198 207 210 210 210 207 208 206 203 207 215 235 249 238 216 225 244 237 247 225 205 207 253 242 246 249 250 275 309 66 100 67 332 10 339 323 54 17 55 87 101 119 129 127 124 128 127 123 122 123 121 120
293 294 295 300 304 305 305 307 311 314 316 320 322 316 312 309 306 300 292 293 283 269 259 248 236 230 228 220 224 219 222 220 152 115 113 128 173 195 202 206 205 203 208 203 202 206 211 234 247 242 223 216 244 250 260 239 205 205 252 249 254 251 244 263 341 70 69 16 315 332 317 315 20 26 85 98 109 116 122 122 123 126 124 121 121 124 123 121
289 292 292 295 300 304 304 305 308 310 313 318 321 314 306 303 302 297 291 293 283 270 260 247 234 229 225 218 220 234 240 222 165 153 228 255 255 227 215 209 203 201 204 201 200 199 206 240 244 237 234 227 235 242 256 250 214 213 246 252 263 271 259 254 183 92 57 298 279 291 332 287 264 263 94 109 116 118 122 121 122 124 123 124 124 127 126 122
282 286 288 291 293 299 304 306 307 308 312 315 317 313 306 302 297 295 292 290 285 274 259 247 237 230 221 215 216 274 247 219 183 230 259 268 268 259 240 218 206 201 203 201 199 198 209 240 241 231 234 246 244 246 253 255 216 204 229 251 253 270 268 246 186 119 108 250 246 256 314 269 257 269 116 126 125 124 127 126 129 129 126 125 123 125 126 124
278 280 283 288 289 295 301 304 306 306 311 311 313 311 307 302 295 295 291 287 286 275 264 252 235 227 214 206 262 270 244 225 209 223 242 260 255 250 239 220 208 201 202 202 201 202 211 228 233 235 244 255 255 256 256 256 236 206 217 237 236 261 274 265 232 131 135 234 224 201 225 253 236 227 142 136 132 129 128 128 132 131 126 124 122 124 127 129
273 276 278 283 286 291 296 303 305 304 309 310 309 306 305 303 296 295 291 289 288 278 270 257 242 233 213 203 258 232 215 194 199 208 221 241 240 240 222 206 203 203 204 203 205 206 208 218 230 240 245 253 263 276 276 272 278 265 239 236 235 255 268 266 250 142 140 240 224 221 241 253 206 185 163 142 138 131 128 128 130 129 126 127 125 127 129 129
267 271 274 278 280 287 293 299 302 303 308 309 307 305 303 302 296 295 295 294 292 284 274 263 253 237 223 244 240 213 173 135 157 188 210 221 229 244 224 200 199 204 207 206 208 208 208 217 234 250 247 236 253 281 293 281 281 287 279 257 246 252 251 239 222 173 169 209 226 229 250 273 184 195 205 150 137 128 127 125 126 127 125 125 126 127 127 127
262 264 269 272 276 283 288 294 298 302 304 306 307 305 303 306 306 301 296 296 290 285 275 268 262 240 244 258 234 214 194 181 180 181 173 194 220 228 221 210 210 211 212 209 210 210 211 219 235 252 254 248 244 243 276 291 290 291 270 220 230 266 248 224 214 181 175 209 223 212 218 272 212 217 222 151 133 125 123 122 122 123 121 122 124 123 123 125
264 263 264 267 272 277 283 288 294 298 301 305 306 304 307 314 314 300 292 292 283 280 275 269 266 244 253 258 239 228 221 230 244 196 152 168 212 220 218 214 217 216 216 215 214 212 214 225 238 251 255 254 260 264 280 293 278 283 276 226 176 219 269 227 209 170 171 219 214 193 145 242 230 214 174 135 130 124 119 120 121 120 118 119 120 120 122 122
266 265 264 265 267 271 279 284 290 295 298 299 301 307 313 314 307 294 285 284 280 284 279 262 253 238 270 269 253 237 230 244 248 205 160 176 208 223 216 210 218 213 212 216 217 218 220 228 236 245 253 255 261 273 300 295 253 231 243 266 166 177 265 236 201 172 189 215 197 184 168 234 234 180 146 128 128 124 119 121 120 118 118 117 116 118 119 118
265 264 264 262 264 267 272 280 287 291 294 295 301 312 315 305 299 287 279 279 282 282 258 229 230 235 284 271 255 244 238 248 240 206 184 189 204 226 211 205 215 210 213 216 218 223 226 233 234 236 243 249 252 252 302 289 276 227 194 221 180 184 233 251 197 182 202 207 183 182 186 248 231 169 145 128 129 127 122 123 120 118 118 117 116 117 119 121
266 264 265 259 259 264 266 275 282 286 291 293 301 313 315 313 307 286 281 284 277 245 218 168 64 268 258 254 260 255 237 231 223 209 200 189 195 217 217 213 210 205 215 217 219 224 230 237 230 228 234 233 198 170 235 259 258 270 196 202 227 197 206 230 187 185 203 204 192 189 197 280 198 166 141 128 131 129 126 126 122 120 119 118 119 118 121 122
267 265 266 261 259 259 260 269 275 283 287 290 303 309 298 322 309 280 282 301 228 140 231 228 136 304 253 242 245 238 219 210 214 215 209 196 191 207 221 226 212 200 208 214 218 220 227 233 217 203 215 214 193 176 196 220 221 230 190 193 241 232 220 207 174 184 194 198 205 184 195 287 118 141 125 125 133 130 128 129 122 120 117 115 115 115 117 115
266 261 261 261 259 255 254 263 269 280 283 290 303 284 248 301 290 270 265 220 187 157 243 215 192 195 283 251 239 233 216 205 213 220 218 210 199 203 218 227 221 204 201 204 206 209 214 221 209 205 197 193 207 204 204 217 222 219 190 183 215 233 244 216 174 180 181 188 207 170 174 215 70 62 60 97 121 124 119 116 113 111 110 109 110 111 113 107
263 258 257 256 256 253 251 256 264 276 281 291 301 286 265 266 259 262 226 215 228 219 230 218 200 218 262 266 264 271 231 211 215 217 215 213 204 205 216 224 225 211 201 191 189 202 206 211 210 203 188 183 203 219 230 233 235 236 201 186 207 216 248 234 171 176 180 174 200 168 147 103 72 56 51 79 98 104 101 101 102 104 105 107 106 104 102 96
262 259 255 252 253 253 250 253 260 269 277 284 290 281 254 228 211 317 201 235 258 244 242 242 224 236 259 263 272 297 278 244 231 215 207 204 198 200 210 213 218 207 201 200 194 201 203 214 216 190 180 194 206 218 234 243 242 249 245 215 219 208 234 237 168 174 182 155 182 160 120 90 80 73 62 74 78 75 87 95 96 100 102 103 103 100 98 96
262 259 255 251 248 247 248 250 254 264 272 273 273 262 251 230 214 264 293 270 270 261 253 251 246 250 260 262 267 281 284 276 244 214 200 194 192 193 197 201 210 190 195 206 194 193 206 217 203 184 188 210 221 215 225 244 244 249 261 258 256 228 232 240 169 171 181 154 167 133 100 88 87 86 72 72 74 71 81 89 93 99 100 100 100 98 99 99
263 260 254 248 241 236 238 243 251 259 262 266 269 264 261 243 220 260 297 284 269 264 251 246 248 251 256 257 260 268 271 276 246 200 192 192 189 190 188 192 206 185 191 211 198 183 205 206 187 191 200 212 228 220 217 239 244 242 244 239 261 247 235 227 165 169 180 164 135 114 96 90 87 90 84 81 86 83 82 86 89 93 97 100 100 98 99 97
264 258 250 247 242 232 228 238 250 254 262 272 271 267 266 246 212 280 290 281 279 262 245 241 240 243 247 247 249 258 256 259 241 186 186 191 184 188 195 191 196 193 195 210 207 197 198 181 185 199 206 210 224 224 214 224 238 242 235 228 248 253 241 182 158 166 169 128 112 107 85 49 78 93 98 95 95 90 86 88 86 87 92 95 96 97 97 95
260 253 246 240 235 228 222 234 246 257 273 270 268 274 251 204 156 319 281 278 285 257 250 242 235 239 240 239 243 251 257 255 231 182 183 189 181 182 199 193 192 204 197 202 209 210 201 183 188 204 211 211 219 224 217 210 223 244 236 232 240 254 260 168 153 158 152 129 125 120 93 356 75 101 109 113 103 95 90 91 91 90 90 89 91 94 96 96
255 248 241 230 222 216 215 232 250 277 272 261 285 17 181 176 157 292 268 284 292 237 224 211 213 232 230 226 228 235 258 255 225 199 184 187 186 183 194 193 191 208 194 195 211 212 209 190 187 201 208 209 216 224 223 206 202 236 234 232 239 250 272 286 165 163 155 168 158 137 121 140 215 125 127 123 108 105 99 95 96 94 91 92 95 97 97 96
249 240 232 223 214 204 207 222 233 250 256 262 298 305 270 236 267 261 217 287 269 203 184 180 185 204 202 204 206 210 248 212 215 227 203 189 191 190 200 198 181 204 194 187 209 196 207 205 188 194 205 209 213 217 221 209 196 228 238 233 239 245 263 285 224 181 167 155 159 145 123 126 207 178 148 130 116 112 108 101 100 99 98 100 101 101 100 99
246 238 227 213 206 205 212 222 226 232 243 255 277 284 265 223 214 202 173 283 218 156 165 173 180 191 186 192 197 205 226 170 185 228 212 194 192 191 206 214 185 200 201 193 203 179 194 216 194 185 201 210 208 211 213 213 207 220 246 243 238 237 248 271 252 180 150 142 163 160 127 116 187 169 143 132 126 127 126 121 118 113 111 107 105 105 102 101
238 235 224 202 200 213 221 233 242 240 232 230 332 356 261 177 163 146 216 254 180 143 148 160 174 187 177 180 194 213 230 200 175 206 204 194 193 193 207 221 205 197 210 212 207 183 192 218 209 184 197 210 203 206 207 218 216 201 242 258 254 242 236 250 256 151 113 145 183 178 151 124 150 166 149 143 145 152 145 131 131 127 123 117 110 107 104 102
223 217 206 189 196 214 229 246 256 258 234 199 59 11 241 155 132 110 220 236 226 145 130 147 166 179 175 171 191 211 224 226 199 190 192 186 190 199 212 221 224 206 214 221 216 218 201 210 218 199 193 198 200 204 208 219 203 170 229 256 270 261 231 130 251 72 89 190 209 189 171 137 118 190 175 167 156 153 146 133 138 134 128 124 117 112 108 104
191 188 189 191 197 208 244 259 268 268 232 185 55 358 134 125 108 215 203 268 289 117 112 147 168 174 179 173 183 203 213 232 217 188 183 174 186 202 204 215 230 213 213 215 215 233 212 198 214 213 195 188 193 204 205 218 202 172 215 225 253 279 307 65 344 68 115 243 241 199 175 117 105 210 197 153 126 136 142 140 143 139 130 125 119 113 109 107
177 183 196 207 209 211 227 235 254 263 234 185 48 355 133 125 242 224 257 304 257 149 145 170 175 171 179 179 182 195 201 222 224 195 180 162 176 203 201 206 205 175 207 204 195 226 225 199 197 212 210 191 188 197 196 213 208 193 208 169 173 270 208 199 254 116 189 236 214 182 147 86 85 260 158 130 125 131 137 137 139 139 132 125 119 114 111 110
218 218 223 224 228 225 225 230 233 243 226 192 160 128 136 189 220 219 270 298 86 192 177 169 178 173 174 182 185 190 197 216 222 197 178 171 173 196 216 228 209 180 196 187 179 205 231 232 201 205 223 198 190 184 183 205 200 199 208 153 151 176 181 211 200 152 219 230 188 160 111 83 201 345 45 114 123 127 128 130 135 135 130 124 118 114 111 108
244 242 239 235 237 230 227 235 223 178 167 186 180 140 188 222 217 212 246 266 306 302 242 169 173 174 177 187 185 184 194 221 224 194 169 176 179 188 211 226 223 214 178 171 191 191 199 234 203 195 207 188 186 179 170 178 176 197 199 150 166 179 167 196 169 151 215 223 174 134 93 86 153 64 60 98 112 120 122 126 128 126 124 120 114 110 108 104
263 258 251 240 236 230 227 229 209 138 136 182 171 182 205 208 249 291 275 284 313 311 294 232 181 176 181 191 185 184 191 218 227 203 174 177 183 188 199 217 224 219 180 171 200 202 203 231 196 184 188 178 181 186 168 163 174 202 179 158 206 205 141 157 178 150 150 156 87 59 68 64 81 86 88 98 109 117 119 123 124 120 118 116 110 106 107 106
279 264 262 246 233 230 237 229 185 116 137 196 183 223 223 233 317 340 324 314 330 332 327 326 221 179 175 187 182 184 194 215 226 208 178 180 190 191 193 209 222 221 208 176 174 196 200 235 196 175 184 188 183 192 185 168 171 181 192 199 210 199 136 121 184 129 99 105 96 24 112 99 90 94 107 113 115 120 123 125 124 119 114 111 108 107 108 108
284 268 269 255 237 232 234 214 149 116 189 220 216 238 249 273 301 320 308 306 326 335 339 344 222 187 168 181 186 180 185 204 227 211 172 183 196 192 193 207 217 223 227 199 174 185 173 228 214 176 164 173 172 191 262 247 218 173 191 211 197 209 181 116 114 141 114 124 152 159 144 143 156 153 143 140 133 135 136 130 125 120 116 113 111 112 111 109
291 278 270 255 227 215 215 176 137 160 214 222 241 258 275 276 291 301 290 292 323 345 345 352 246 220 164 168 191 182 176 189 220 205 168 179 197 191 191 204 213 222 234 219 205 211 166 157 220 175 155 144 155 180 261 258 250 216 175 179 158 192 216 146 130 168 158 150 120 126 151 167 179 161 159 157 149 148 143 134 132 127 124 122 117 115 111 108
293 286 282 252 197 190 185 154 152 192 202 196 235 247 271 276 279 282 278 282 317 353 326 297 295 301 266 178 196 182 174 188 215 204 170 176 196 196 191 193 205 217 234 231 212 203 164 136 192 174 158 150 154 180 219 241 251 241 189 184 176 172 184 171 171 168 159 155 126 135 169 209 215 165 166 166 158 154 147 140 137 130 127 124 119 117 115 112
300 291 295 202 176 171 159 151 165 187 187 233 237 246 268 280 284 290 295 297 321 356 257 278 297 312 332 326 301 205 180 188 211 220 181 179 187 194 192 190 195 209 227 237 218 166 137 121 161 193 168 167 178 195 204 207 220 235 219 192 190 178 161 173 201 178 150 145 133 140 179 230 264 166 165 162 158 154 145 136 129 128 126 123 121 122 120 117
313 297 264 165 155 149 147 152 177 196 225 244 246 257 267 275 280 295 309 313 315 266 238 269 284 284 315 321 330 323 199 183 202 225 177 177 185 188 195 194 190 198 215 234 227 181 140 132 177 210 182 181 183 182 196 208 200 207 222 200 185 166 148 157 239 230 150 140 146 147 163 203 262 345 181 160 151 141 133 126 122 122 120 119 123 125 122 122
304 282 175 153 147 149 153 157 216 212 235 251 252 263 270 276 275 287 308 315 312 274 231 234 276 269 279 294 316 325 302 193 202 215 169 181 195 199 199 195 193 197 202 220 229 192 131 124 168 226 201 181 176 177 188 212 228 222 232 214 173 158 149 144 197 221 178 131 117 113 122 151 269 307 276 144 128 123 123 121 117 116 117 121 126 126 125 126
280 297 159 153 156 163 164 174 249 213 242 257 256 263 266 269 270 279 305 309 298 266 208 202 293 289 324 345 330 325 328 272 217 215 180 177 202 213 203 193 192 199 194 203 230 199 137 116 156 205 242 177 183 188 183 201 230 238 239 217 171 170 170 153 160 189 185 154 117 81 89 154 293 299 125 121 117 117 120 119 117 117 121 127 131 128 127 126
319 339 146 154 163 178 188 243 237 215 257 256 257 268 270 271 272 279 296 293 285 271 176 190 288 292 329 343 317 301 323 350 253 242 204 168 197 210 202 192 194 200 187 185 199 189 178 145 129 148 180 170 181 197 187 199 216 222 248 236 200 171 162 167 185 206 267 182 133 118 126 194 272 116 118 120 118 117 120 122 123 125 129 132 133 131 132 128
346 39 140 157 170 192 229 267 289 299 292 286 289 291 283 278 286 306 298 283 278 285 308 221 223 243 303 314 300 286 292 253 260 270 253 183 189 201 193 190 197 201 190 187 181 168 171 149 112 137 161 173 182 203 192 184 207 231 256 251 228 187 164 158 161 184 237 159 115 122 143 152 157 121 117 121 121 119 123 126 126 128 131 134 136 137 138 130
346 66 119 157 179 206 243 261 268 270 276 294 297 293 291 290 300 305 291 268 260 270 307 322 289 321 327 327 317 306 319 296 281 313 293 230 171 199 191 189 194 196 196 186 168 149 129 133 134 135 156 181 185 214 183 146 174 224 240 249 238 210 180 140 120 180 196 121 74 137 145 141 151 139 127 127 125 124 129 129 128 130 133 138 140 137 132 125
315 330 115 158 188 218 242 251 248 241 249 261 265 296 313 308 311 305 290 273 261 285 321 301 294 300 303 328 329 319 320 309 319 332 295 242 118 259 216 198 197 196 194 175 155 139 61 123 162 146 135 168 134 9 358 157 184 206 228 255 249 220 198 160 140 164 157 125 35 166 146 141 154 152 140 137 135 131 135 134 134 137 141 144 142 136 129 124
313 320 297 194 202 215 231 255 259 267 273 263 257 324 302 290 293 291 291 314 343 338 334 295 302 304 274 299 314 299 319 328 352 339 306 286 47 280 240 243 206 178 160 148 148 135 91 141 181 148 90 30 8 4 14 26 194 194 206 229 242 223 196 171 156 159 154 151 166 165 153 144 149 150 142 139 139 135 136 137 139 143 147 148 142 136 130 124
333 317 308 317 270 229 302 314 302 302 299 289 289 296 269 278 287 273 278 319 337 322 320 309 315 328 308 307 313 320 349 353 327 328 341 353 348 315 292 337 293 149 136 138 154 110 95 96 171 112 84 13 347 360 36 46 44 76 184 229 135 97 102 100 88 90 93 102 132 143 138 127 133 138 133 133 134 133 133 135 141 149 151 146 139 132 128 123
359 336 323 329 320 335 352 328 315 323 321 315 273 257 262 281 305 321 314 317 320 309 306 303 322 345 343 349 359 346 343 8 235 291 353 1 351 353 13 12 346 169 149 141 131 106 99 359 315 93 72 2 6 26 55 75 70 58 41 27 59 82 85 90 97 90 84 88 108 119 115 105 118 124 124 129 131 132 134 138 148 156 150 139 134 131 128 125
8 10 354 338 314 345 353 327 329 349 303 274 273 295 304 306 332 351 329 304 293 285 291 315 346 4 357 14 32 324 302 327 343 329 353 11 316 306 297 319 353 308 207 99 94 117 111 59 340 76 81 2 12 46 86 91 78 65 42 19 30 70 84 88 84 86 110 119 117 116 123 137 137 129 127 131 135 136 139 145 154 154 143 137 135 132 129 127
9 10 10 1 313 319 339 326 341 338 288 308 322 314 307 306 325 340 322 294 285 269 267 283 305 25 15 23 78 265 290 319 357 355 357 332 295 304 305 319 339 346 2 51 78 95 102 107 61 80 107 326 341 7 27 67 66 55 14 344 348 70 90 78 51 60 115 130 134 148 157 145 139 137 134 137 142 142 145 152 156 148 139 137 136 131 128 127
Height
1500 1499 1498 1497 1497 1496 1495 1494 1493 1492 1492 1491 1490 1489 1489 1488 1487 1487 1486 1486 1486 1486 1487 1487 1487 1487 1487 1487 1487 1487 1486 1486 1486 1486 1483 1483 1487 1489 1490 1491 1492 1493 1494 1494 1495 1495 1496 1497 1498 1500 1501 1501 1502 1500 1499 1499 1498 1500 1501 1505 1507 1504 1498 1490 1490 1487 1481 1479 1474 1472 1472 1474 1476 1475 1476 1481 1483 1485 1488 1489 1491 1494 1497 1501 1506 1510 1513 1516
1499 1498 1497 1497 1496 1495 1494 1493 1492 1491 1490 1490 1489 1488 1487 1487 1486 1485 1485 1485 1485 1485 1485 1485 1486 1486 1486 1486 1486 1485 1484 1484 1483 1481 1479 1482 1486 1486 1488 1489 1491 1492 1492 1494 1494 1495 1495 1496 1498 1499 1500 1500 1500 1499 1499 1497 1496 1497 1498 1502 1501 1497 1490 1485 1487 1482 1478 1479 1474 1472 1472 1473 1474 1474 1476 1481 1485 1486 1490 1494 1494 1497 1502 1505 1508 1511 1514 1516
1498 1497 1496 1496 1495 1494 1493 1492 1491 1490 1489 1489 1488 1487 1486 1485 1485 1484 1484 1483 1483 1483 1484 1484 1484 1485 1485 1484 1484 1484 1483 1482 1480 1476 1477 1482 1483 1484 1486 1488 1489 1491 1491 1493 1494 1494 1495 1496 1498 1499 1499 1499 1498 1498 1497 1496 1495 1494 1496 1500 1494 1490 1487 1484 1485 1481 1477 1477 1474 1473 1472 1473 1474 1475 1477 1479 1484 1486 1489 1493 1494 1499 1504 1506 1510 1513 1514 1517
1497 1496 1495 1494 1494 1493 1492 1491 1490 1490 1488 1488 1487 1486 1485 1484 1483 1483 1483 1482 1482 1482 1482 1483 1483 1483 1483 1483 1484 1483 1482 1481 1476 1473 1475 1479 1480 1482 1484 1486 1488 1490 1491 1492 1493 1493 1493 1495 1497 1498 1498 1497 1496 1496 1495 1494 1494 1492 1494 1494 1488 1488 1489 1486 1485 1481 1477 1476 1475 1475 1474 1476 1476 1476 1477 1477 1484 1489 1488 1489 1491 1497 1502 1506 1511 1513 1515 1518
1496 1495 1494 1493 1493 1492 1491 1490 1489 1488 1487 1487 1486 1485 1484 1483 1482 1482 1482 1481 1481 1481 1481 1481 1482 1482 1482 1482 1482 1482 1483 1481 1474 1472 1474 1476 1478 1480 1482 1485 1487 1488 1490 1491 1492 1492 1493 1493 1494 1496 1496 1495 1494 1494 1492 1491 1492 1491 1490 1488 1485 1489 1490 1485 1483 1481 1478 1477 1477 1477 1477 1479 1477 1477 1478 1478 1484 1488 1489 1491 1492 1497 1502 1506 1510 1514 1516 1518
1495 1494 1493 1492 1491 1491 1490 1489 1488 1487 1486 1485 1484 1484 1483 1482 1481 1481 1481 1480 1480 1480 1480 1480 1480 1481 1481 1481 1481 1481 1481 1478 1472 1472 1473 1474 1477 1478 1481 1483 1485 1487 1488 1489 1490 1491 1492 1492 1493 1494 1494 1493 1493 1492 1490 1488 1489 1490 1488 1485 1485 1488 1487 1483 1483 1481 1479 1478 1479 1480 1480 1479 1478 1479 1480 1480 1483 1486 1489 1492 1494 1498 1503 1506 1509 1513 1516 1518
1493 1492 1492 1491 1490 1489 1489 1488 1487 1486 1485 1484 1483 1482 1482 1481 1480 1480 1479 1479 1479 1478 1479 1479 1479 1479 1479 1480 1480 1480 1479 1475 1471 1473 1474 1475 1477 1477 1480 1481 1483 1485 1486 1488 1489 1490 1490 1491 1491 1491 1491 1491 1491 1489 1488 1486 1486 1488 1488 1484 1484 1484 1484 1482 1483 1482 1481 1481 1480 1482 1481 1479 1480 1481 1484 1484 1485 1487 1491 1493 1496 1500 1504 1507 1510 1513 1516 1519
1492 1491 1490 1489 1489 1488 1487 1487 1486 1485 1484 1483 1482 1481 1481 1480 1479 1479 1478 1478 1477 1477 1477 1478 1478 1478 1478 1479 1478 1479 1476 1472 1471 1473 1474 1475 1477 1478 1479 1480 1481 1483 1484 1486 1487 1488 1490 1490 1489 1490 1490 1490 1489 1487 1485 1485 1485 1486 1486 1484 1482 1482 1481 1481 1482 1483 1483 1483 1482 1483 1483 1481 1481 1482 1486 1489 1488 1489 1492 1495 1498 1502 1505 1508 1510 1513 1516 1519
1490 1490 1489 1488 1487 1487 1486 1485 1485 1484 1483 1482 1481 1480 1479 1479 1478 1478 1477 1477 1476 1476 1476 1477 1477 1477 1478 1477 1478 1477 1470 1469 1472 1472 1474 1475 1476 1477 1477 1478 1480 1481 1482 1484 1485 1487 1488 1488 1488 1488 1489 1488 1488 1486 1484 1486 1485 1483 1483 1482 1481 1480 1479 1479 1480 1481 1482 1483 1483 1484 1484 1483 1482 1483 1488 1490 1490 1490 1491 1495 1499 1502 1506 1509 1511 1514 1517 1519
1488 1488 1487 1487 1486 1485 1485 1484 1483 1482 1482 1481 1480 1479 1478 1477 1477 1476 1476 1476 1475 1475 1475 1476 1476 1476 1477 1475 1478 1476 1466 1467 1472 1472 1474 1475 1475 1476 1476 1477 1478 1479 1481 1482 1484 1485 1486 1486 1487 1488 1488 1487 1486 1485 1483 1484 1483 1480 1479 1479 1479 1479 1478 1479 1480 1480 1481 1483 1483 1485 1485 1484 1482 1485 1491 1491 1490 1491 1491 1495 1498 1501 1505 1509 1511 1514 1517 1519
1486 1486 1486 1485 1485 1484 1483 1483 1482 1481 1480 1479 1479 1478 1477 1476 1476 1475 1475 1475 1474 1474 1474 1474 1475 1475 1475 1475 1476 1473 1465 1467 1470 1472 1475 1474 1474 1475 1475 1476 1477 1478 1479 1481 1482 1484 1485 1485 1486 1488 1488 1486 1486 1484 1481 1481 1480 1478 1478 1479 1479 1478 1478 1479 1479 1480 1482 1483 1483 1484 1484 1484 1483 1485 1489 1491 1490 1490 1491 1495 1499 1502 1505 1509 1512 1514 1517 1518
1484 1484 1483 1483 1483 1482 1482 1481 1480 1480 1479 1478 1477 1476 1476 1475 1474 1474 1474 1474 1473 1473 1473 1474 1474 1473 1474 1473 1472 1467 1464 1466 1467 1470 1473 1473 1474 1474 1475 1476 1476 1477 1478 1480 1481 1482 1484 1484 1486 1487 1486 1486 1485 1485 1481 1478 1478 1477 1478 1480 1480 1479 1479 1479 1478 1480 1482 1484 1483 1484 1488 1488 1485 1484 1486 1489 1489 1488 1491 1496 1500 1503 1506 1510 1512 1514 1517 1519
1481 1481 1481 1481 1481 1481 1480 1479 1479 1478 1477 1477 1476 1475 1475 1474 1474 1474 1473 1473 1472 1472 1472 1473 1472 1472 1473 1470 1465 1463 1463 1465 1466 1467 1468 1470 1474 1474 1475 1475 1475 1477 1478 1479 1480 1482 1484 1484 1485 1485 1485 1485 1484 1483 1481 1477 1478 1477 1477 1479 1481 1483 1483 1478 1478 1479 1481 1483 1481 1485 1496 1496 1486 1482 1484 1487 1487 1488 1493 1498 1501 1505 1508 1511 1513 1515 1518 1521
1479 1479 1479 1479 1479 1479 1479 1478 1477 1477 1476 1475 1474 1474 1473 1473 1473 1472 1472 1472 1471 1471 1471 1472 1472 1472 1472 1467 1462 1462 1462 1463 1465 1465 1465 1467 1471 1473 1474 1475 1475 1477 1477 1479 1480 1481 1483 1484 1485 1484 1483 1483 1482 1481 1480 1478 1478 1478 1479 1479 1482 1488 1487 1478 1477 1480 1481 1482 1479 1484 1498 1497 1485 1481 1483 1485 1486 1488 1495 1500 1503 1506 1509 1512 1514 1516 1519 1522
1477 1477 1477 1477 1477 1477 1477 1476 1476 1475 1475 1474 1473 1473 1472 1472 1471 1471 1471 1470 1470 1471 1470 1471 1471 1471 1472 1466 1461 1461 1461 1462 1463 1463 1464 1465 1468 1471 1472 1474 1475 1476 1477 1478 1479 1481 1482 1483 1484 1483 1482 1481 1481 1482 1482 1482 1479 1478 1484 1486 1483 1488 1488 1479 1476 1478 1481 1481 1477 1484 1497 1494 1485 1481 1483 1485 1486 1490 1497 1502 1504 1507 1510 1513 1515 1517 1520 1522
1474 1474 1474 1475 1475 1475 1475 1475 1474 1474 1473 1473 1472 1472 1471 1471 1470 1469 1469 1468 1469 1470 1470 1471 1470 1472 1471 1464 1459 1459 1457 1458 1461 1463 1464 1464 1466 1469 1470 1473 1474 1475 1476 1477 1478 1479 1480 1481 1481 1481 1481 1480 1480 1482 1485 1488 1484 1479 1484 1489 1486 1487 1489 1483 1477 1475 1477 1479 1479 1483 1492 1492 1485 1482 1482 1484 1487 1492 1498 1502 1505 1508 1511 1514 1516 1518 1520 1522
1471 1472 1472 1472 1473 1473 1474 1473 1473 1473 1472 1471 1471 1471 1470 1469 1469 1468 1468 1468 1468 1468 1469 1470 1471 1473 1468 1460 1457 1455 1454 1456 1459 1461 1462 1463 1465 1467 1469 1471 1472 1474 1475 1476 1477 1477 1478 1479 1479 1479 1479 1478 1479 1481 1490 1497 1493 1484 1483 1486 1485 1484 1486 1486 1480 1474 1474 1479 1481 1482 1487 1489 1484 1481 1482 1484 1487 1492 1499 1503 1506 1509 1513 1515 1517 1520 1521 1522
1469 1469 1470 1470 1471 1471 1472 1472 1471 1471 1471 1470 1470 1470 1469 1468 1468 1467 1467 1467 1467 1469 1470 1469 1472 1472 1461 1452 1451 1450 1451 1454 1456 1458 1461 1463 1464 1466 1468 1469 1471 1473 1473 1475 1475 1475 1476 1475 1475 1477 1477 1478 1478 1481 1492 1496 1491 1487 1485 1486 1485 1482 1482 1482 1480 1475 1474 1479 1482 1484 1488 1488 1482 1481 1483 1486 1488 1493 1499 1504 1507 1511 1514 1517 1519 1520 1522 1522
1466 1466 1467 1468 1469 1469 1470 1470 1470 1470 1469 1469 1469 1468 1468 1467 1467 1466 1466 1467 1467 1467 1467 1465 1466 1461 1449 1444 1447 1448 1450 1453 1455 1457 1459 1461 1464 1465 1466 1468 1469 1471 1471 1473 1472 1472 1473 1474 1475 1477 1476 1477 1478 1480 1486 1485 1481 1480 1480 1481 1484 1483 1479 1475 1474 1471 1471 1479 1482 1484 1488 1489 1488 1489 1488 1488 1492 1496 1501 1505 1508 1513 1515 1517 1520 1521 1522 1522
1463 1464 1465 1465 1466 1467 1468 1468 1468 1468 1468 1468 1467 1467 1466 1465 1465 1465 1465 1466 1464 1461 1460 1459 1459 1454 1445 1442 1445 1449 1451 1453 1454 1454 1455 1459 1462 1464 1465 1466 1467 1468 1468 1470 1470 1469 1470 1474 1474 1474 1474 1475 1476 1477 1478 1476 1474 1473 1474 1476 1477 1479 1477 1470 1469 1468 1468 1477 1482 1481 1487 1493 1497 1499 1494 1493 1496 1500 1504 1508 1511 1515 1517 1519 1521 1522 1523 1524
1460 1461 1462 1463 1464 1465 1466 1466 1466 1466 1467 1466 1466 1466 1464 1463 1463 1463 1464 1462 1459 1458 1457 1457 1458 1454 1446 1441 1443 1449 1452 1452 1451 1452 1453 1456 1460 1462 1462 1463 1464 1465 1465 1466 1468 1467 1468 1472 1471 1469 1470 1472 1473 1475 1475 1474 1472 1472 1473 1475 1475 1475 1471 1465 1465 1466 1465 1474 1480 1480 1489 1499 1502 1503 1501 1498 1502 1506 1507 1510 1515 1517 1519 1520 1522 1524 1525 1526
1458 1458 1459 1461 1461 1463 1464 1464 1464 1465 1465 1464 1464 1463 1460 1460 1460 1462 1464 1460 1455 1456 1455 1454 1456 1453 1446 1442 1443 1448 1451 1450 1449 1449 1450 1454 1456 1457 1458 1459 1461 1462 1463 1464 1466 1468 1469 1469 1467 1467 1468 1471 1472 1473 1473 1472 1471 1472 1474 1477 1478 1471 1465 1462 1462 1463 1464 1471 1478 1482 1494 1504 1504 1504 1505 1503 1507 1511 1511 1513 1517 1519 1520 1522 1523 1525 1526 1527
1455 1455 1457 1458 1459 1460 1461 1462 1463 1463 1463 1462 1461 1459 1457 1459 1460 1461 1464 1460 1454 1452 1452 1451 1452 1450 1443 1440 1443 1448 1449 1446 1443 1444 1447 1450 1452 1454 1455 1456 1458 1460 1461 1461 1462 1468 1471 1467 1464 1466 1468 1470 1471 1470 1471 1471 1470 1472 1473 1478 1478 1469 1464 1466 1464 1462 1463 1467 1474 1484 1497 1505 1505 1506 1508 1510 1511 1513 1515 1517 1519 1521 1522 1524 1524 1525 1526 1527
1453 1454 1455 1455 1457 1458 1459 1461 1461 1460 1461 1460 1458 1455 1456 1458 1459 1461 1462 1459 1451 1448 1448 1448 1448 1446 1439 1437 1443 1446 1446 1441 1438 1439 1443 1446 1448 1451 1453 1453 1456 1458 1458 1457 1459 1464 1465 1462 1462 1464 1466 1467 1469 1469 1469 1471 1472 1471 1469 1473 1473 1465 1461 1462 1462 1461 1463 1468 1473 1483 1502 1510 1508 1509 1512 1514 1515 1515 1518 1519 1521 1524 1524 1525 1525 1525 1527 1528
1450 1452 1453 1454 1456 1457 1458 1459 1458 1459 1459 1457 1455 1453 1455 1457 1458 1460 1461 1459 1451 1444 1444 1444 1444 1440 1434 1438 1442 1442 1442 1438 1435 1436 1439 1442 1444 1448 1450 1451 1454 1455 1455 1455 1457 1460 1460 1458 1459 1462 1463 1463 1466 1467 1465 1468 1473 1471 1465 1464 1465 1461 1458 1459 1461 1464 1472 1482 1477 1478 1508 1522 1511 1511 1515 1514 1516 1518 1520 1521 1523 1525 1525 1526 1526 1527 1528 1529
1448 1450 1451 1452 1454 1455 1458 1457 1457 1458 1456 1455 1454 1454 1456 1456 1458 1461 1461 1462 1454 1440 1436 1438 1438 1432 1429 1435 1439 1441 1443 1437 1433 1435 1438 1440 1442 1445 1447 1448 1449 1451 1452 1453 1456 1457 1455 1454 1455 1458 1460 1461 1463 1464 1460 1462 1470 1471 1462 1457 1457 1457 1458 1460 1463 1467 1476 1486 1477 1470 1500 1525 1517 1513 1515 1514 1517 1520 1521 1523 1524 1525 1526 1526 1527 1528 1529 1530
1446 1448 1449 1451 1452 1455 1456 1455 1456 1457 1455 1454 1453 1455 1457 1456 1459 1460 1463 1467 1453 1430 1425 1430 1430 1426 1425 1430 1434 1440 1442 1434 1433 1434 1434 1439 1441 1442 1446 1445 1446 1448 1447 1451 1457 1454 1449 1450 1452 1453 1457 1459 1461 1461 1457 1457 1466 1468 1456 1452 1455 1454 1456 1460 1462 1467 1469 1473 1476 1470 1486 1515 1521 1514 1512 1513 1518 1523 1523 1525 1525 1525 1527 1527 1528 1529 1530 1531
1445 1447 1448 1449 1451 1453 1454 1454 1455 1454 1454 1453 1452 1455 1455 1455 1460 1459 1465 1466 1438 1414 1417 1422 1423 1424 1423 1428 1431 1434 1432 1429 1431 1432 1431 1437 1439 1440 1443 1442 1443 1446 1442 1447 1456 1450 1445 1448 1448 1449 1455 1457 1456 1455 1453 1454 1460 1460 1452 1450 1452 1451 1454 1457 1459 1462 1460 1467 1484 1480 1479 1506 1520 1511 1510 1514 1518 1525 1526 1525 1526 1526 1527 1528 1528 1530 1530 1532
1445 1446 1448 1449 1450 1452 1453 1454 1453 1453 1453 1452 1452 1454 1453 1455 1458 1458 1467 1458 1421 1406 1413 1416 1420 1423 1423 1427 1431 1431 1428 1427 1428 1428 1430 1435 1436 1437 1441 1440 1441 1443 1441 1443 1448 1446 1442 1443 1443 1445 1450 1451 1450 1450 1449 1451 1454 1453 1450 1449 1449 1450 1452 1455 1458 1459 1460 1471 1485 1483 1476 1497 1519 1515 1512 1517 1518 1523 1525 1525 1526 1526 1527 1530 1529 1531 1532 1533
1444 1446 1447 1449 1450 1452 1452 1452 1452 1453 1453 1452 1452 1453 1453 1455 1457 1464 1468 1442 1409 1405 1412 1413 1418 1420 1421 1426 1429 1429 1428 1427 1426 1426 1429 1431 1433 1436 1439 1439 1439 1440 1440 1440 1442 1441 1437 1438 1439 1439 1442 1444 1446 1446 1446 1448 1449 1449 1451 1451 1452 1452 1451 1456 1457 1457 1471 1481 1478 1475 1470 1484 1514 1519 1511 1512 1511 1512 1519 1523 1526 1527 1528 1530 1531 1532 1533 1534
1445 1446 1447 1449 1450 1451 1452 1452 1452 1452 1452 1452 1452 1453 1454 1455 1459 1465 1452 1420 1405 1411 1412 1415 1418 1417 1420 1424 1427 1429 1428 1427 1424 1423 1426 1428 1432 1436 1437 1438 1439 1441 1443 1442 1441 1438 1435 1437 1436 1434 1435 1438 1442 1444 1444 1444 1445 1448 1451 1454 1461 1461 1457 1463 1464 1464 1484 1490 1474 1467 1462 1472 1506 1516 1506 1505 1505 1508 1515 1519 1523 1526 1528 1530 1532 1533 1534 1535
1446 1447 1448 1448 1449 1450 1450 1451 1451 1452 1452 1452 1453 1454 1455 1459 1463 1458 1436 1414 1412 1415 1411 1414 1416 1415 1420 1423 1425 1427 1426 1426 1422 1420 1423 1426 1431 1434 1434 1435 1436 1444 1448 1445 1443 1441 1436 1434 1432 1432 1432 1433 1439 1444 1445 1444 1444 1448 1451 1457 1471 1475 1472 1477 1479 1479 1487 1484 1469 1462 1463 1481 1507 1511 1503 1504 1507 1510 1515 1517 1521 1525 1528 1531 1533 1534 1535 1537
1446 1446 1447 1448 1448 1449 1449 1450 1451 1452 1452 1452 1454 1455 1456 1460 1457 1446 1434 1423 1417 1411 1408 1411 1412 1413 1418 1422 1423 1423 1424 1424 1420 1419 1421 1424 1430 1433 1433 1431 1430 1439 1445 1443 1444 1445 1443 1437 1430 1431 1432 1428 1433 1442 1448 1447 1445 1449 1452 1458 1473 1480 1485 1490 1487 1486 1487 1479 1466 1457 1468 1499 1514 1509 1506 1507 1508 1511 1515 1519 1523 1525 1528 1531 1533 1535 1536 1538
1446 1446 1446 1447 1447 1447 1448 1450 1451 1451 1452 1452 1455 1457 1458 1456 1443 1432 1432 1428 1419 1412 1408 1407 1409 1413 1416 1419 1420 1420 1424 1424 1418 1418 1420 1423 1431 1434 1433 1431 1427 1431 1436 1440 1443 1443 1449 1446 1431 1428 1430 1426 1428 1434 1440 1443 1444 1447 1445 1451 1465 1469 1477 1487 1485 1485 1487 1479 1469 1466 1483 1510 1517 1513 1512 1510 1510 1513 1515 1520 1524 1526 1529 1532 1534 1536 1537 1538
1445 1445 1445 1445 1446 1446 1447 1450 1450 1451 1452 1453 1455 1457 1456 1450 1437 1431 1431 1427 1422 1418 1411 1406 1408 1413 1416 1417 1416 1416 1420 1422 1418 1417 1419 1423 1428 1430 1430 1429 1426 1427 1431 1439 1441 1436 1443 1442 1424 1421 1424 1422 1427 1430 1430 1438 1445 1445 1441 1448 1459 1456 1459 1470 1471 1472 1478 1480 1485 1496 1508 1515 1515 1515 1514 1513 1515 1516 1516 1521 1523 1527 1531 1532 1535 1537 1537 1539
1445 1445 1445 1444 1445 1446 1448 1450 1450 1450 1452 1454 1456 1456 1450 1442 1436 1435 1432 1427 1425 1422 1417 1413 1408 1411 1417 1416 1414 1415 1417 1419 1418 1418 1420 1421 1424 1426 1426 1426 1424 1423 1426 1432 1435 1433 1439 1436 1420 1419 1423 1420 1425 1428 1427 1436 1444 1444 1445 1449 1449 1444 1449 1462 1468 1468 1472 1485 1503 1515 1517 1517 1517 1519 1517 1516 1519 1518 1518 1521 1523 1527 1531 1532 1535 1538 1539 1540
1445 1445 1444 1444 1445 1446 1448 1449 1449 1450 1452 1454 1456 1452 1445 1439 1435 1433 1430 1427 1426 1424 1424 1424 1412 1407 1415 1416 1414 1414 1416 1418 1418 1418 1420 1421 1422 1422 1422 1423 1422 1420 1419 1423 1427 1427 1432 1434 1421 1419 1426 1423 1423 1427 1427 1429 1435 1442 1447 1445 1443 1444 1447 1454 1469 1478 1478 1490 1510 1516 1516 1518 1519 1520 1520 1517 1519 1520 1519 1521 1524 1528 1531 1533 1536 1538 1539 1540
1445 1445 1443 1442 1444 1447 1448 1449 1450 1451 1453 1455 1455 1450 1443 1439 1435 1432 1429 1427 1426 1425 1428 1430 1417 1405 1409 1414 1413 1411 1414 1420 1418 1415 1419 1422 1421 1418 1418 1420 1420 1417 1415 1418 1424 1422 1424 1434 1426 1417 1424 1425 1423 1431 1435 1430 1429 1436 1440 1437 1443 1455 1457 1455 1468 1481 1484 1494 1511 1518 1517 1515 1514 1516 1519 1518 1518 1520 1520 1521 1524 1528 1530 1533 1535 1537 1539 1540
1446 1445 1443 1441 1444 1446 1448 1449 1451 1453 1454 1455 1455 1450 1443 1439 1434 1431 1429 1426 1425 1427 1429 1430 1423 1413 1410 1411 1410 1408 1411 1417 1416 1413 1417 1422 1420 1415 1413 1416 1417 1417 1414 1415 1421 1419 1420 1433 1433 1420 1420 1425 1427 1434 1441 1438 1432 1433 1436 1435 1438 1449 1454 1454 1459 1467 1477 1491 1506 1517 1519 1514 1509 1509 1513 1515 1516 1517 1520 1522 1525 1528 1531 1533 1535 1537 1539 1541
1446 1446 1443 1442 1444 1446 1448 1451 1452 1454 1455 1454 1451 1447 1441 1437 1433 1429 1427 1425 1424 1427 1430 1429 1426 1421 1415 1410 1409 1407 1407 1412 1414 1412 1413 1417 1419 1414 1410 1412 1414 1415 1414 1414 1417 1417 1418 1430 1436 1427 1421 1427 1433 1432 1435 1440 1438 1437 1440 1441 1441 1442 1445 1450 1453 1454 1463 1479 1499 1515 1518 1512 1507 1506 1506 1509 1512 1514 1518 1522 1525 1528 1531 1533 1535 1538 1540 1542
1447 1446 1444 1443 1445 1447 1449 1452 1453 1453 1453 1451 1447 1444 1440 1436 1433 1429 1426 1425 1424 1425 1427 1425 1423 1422 1419 1415 1412 1408 1406 1408 1410 1410 1409 1413 1417 1414 1408 1407 1409 1411 1412 1415 1416 1416 1420 1428 1434 1432 1428 1430 1431 1426 1427 1433 1434 1436 1440 1439 1440 1442 1445 1456 1462 1455 1452 1465 1487 1502 1508 1510 1508 1507 1506 1507 1509 1513 1517 1520 1525 1528 1530 1533 1536 1538 1540 1542
1447 1447 1445 1445 1447 1448 1449 1452 1452 1451 1451 1448 1444 1442 1439 1436 1433 1429 1426 1425 1424 1423 1423 1423 1421 1420 1418 1415 1412 1411 1409 1407 1406 1407 1407 1408 1410 1408 1404 1403 1405 1407 1410 1415 1415 1412 1414 1424 1432 1432 1428 1426 1425 1422 1425 1428 1428 1431 1433 1432 1434 1437 1442 1456 1466 1460 1452 1459 1476 1488 1499 1509 1509 1505 1506 1507 1508 1514 1518 1521 1525 1529 1531 1534 1536 1538 1540 1542
1446 1446 1446 1447 1448 1449 1451 1452 1451 1450 1448 1445 1442 1440 1437 1434 1431 1428 1426 1426 1424 1420 1420 1421 1419 1417 1416 1414 1413 1413 1412 1408 1403 1401 1402 1403 1403 1402 1400 1400 1403 1405 1407 1412 1414 1410 1412 1422 1431 1432 1427 1422 1421 1420 1422 1424 1427 1431 1430 1428 1431 1434 1436 1443 1451 1453 1454 1460 1474 1488 1501 1512 1510 1504 1505 1507 1510 1515 1520 1523 1525 1529 1533 1535 1537 1539 1540 1541
1445 1445 1446 1447 1449 1450 1451 1450 1449 1449 1446 1442 1440 1437 1435 1432 1429 1428 1427 1426 1423 1418 1416 1418 1419 1418 1417 1415 1415 1414 1414 1413 1406 1398 1397 1398 1399 1398 1397 1398 1400 1402 1404 1408 1409 1410 1414 1421 1428 1436 1438 1436 1434 1432 1430 1428 1427 1431 1431 1427 1427 1430 1433 1438 1442 1447 1456 1461 1468 1485 1505 1514 1509 1504 1505 1507 1511 1517 1521 1524 1526 1529 1533 1536 1537 1539 1540 1541
1446 1447 1447 1448 1450 1450 1450 1448 1448 1448 1445 1443 1441 1437 1434 1431 1427 1427 1427 1424 1422 1418 1416 1417 1417 1417 1417 1415 1416 1413 1411 1413 1410 1401 1396 1395 1394 1393 1394 1396 1399 1400 1401 1403 1405 1407 1414 1419 1424 1435 1445 1447 1446 1443 1438 1434 1430 1431 1431 1429 1428 1428 1432 1441 1446 1451 1461 1465 1465 1481 1504 1514 1509 1506 1508 1510 1513 1518 1522 1525 1527 1529 1533 1535 1537 1539 1540 1542
1447 1448 1449 1450 1451 1450 1449 1447 1447 1448 1446 1444 1442 1436 1434 1431 1426 1425 1424 1422 1419 1417 1416 1416 1415 1416 1417 1416 1417 1414 1409 1409 1409 1405 1400 1396 1393 1391 1391 1394 1397 1398 1399 1401 1403 1406 1413 1417 1419 1428 1436 1438 1439 1435 1429 1429 1432 1434 1433 1431 1430 1428 1430 1439 1447 1453 1461 1468 1474 1483 1494 1505 1510 1509 1510 1513 1514 1518 1523 1525 1528 1530 1533 1536 1537 1539 1540 1541
1448 1448 1447 1449 1451 1450 1448 1446 1445 1445 1443 1442 1441 1436 1435 1434 1429 1425 1422 1418 1416 1416 1416 1415 1414 1416 1418 1418 1418 1416 1411 1407 1407 1407 1402 1395 1392 1391 1391 1392 1394 1396 1399 1400 1401 1406 1414 1419 1419 1423 1428 1429 1429 1428 1425 1426 1430 1432 1434 1433 1432 1430 1431 1437 1446 1453 1457 1463 1479 1490 1488 1494 1505 1507 1507 1512 1514 1518 1522 1525 1527 1530 1533 1536 1538 1539 1541 1542
1448 1447 1445 1446 1448 1447 1447 1444 1442 1442 1441 1440 1438 1436 1436 1436 1432 1429 1424 1418 1416 1417 1418 1417 1416 1416 1416 1417 1418 1417 1413 1410 1410 1409 1404 1396 1394 1394 1393 1392 1393 1395 1397 1401 1402 1404 1413 1422 1420 1422 1428 1427 1426 1427 1428 1429 1429 1428 1429 1432 1432 1432 1433 1438 1446 1451 1449 1451 1470 1488 1489 1490 1499 1503 1505 1510 1512 1517 1521 1524 1528 1531 1533 1535 1537 1539 1541 1542
1448 1447 1445 1445 1445 1444 1444 1442 1440 1441 1440 1438 1438 1437 1436 1434 1430 1428 1424 1421 1421 1420 1420 1421 1418 1416 1415 1415 1417 1418 1416 1416 1416 1413 1409 1406 1402 1399 1398 1397 1397 1396 1396 1401 1404 1403 1412 1423 1422 1422 1430 1430 1427 1429 1430 1432 1434 1434 1434 1435 1436 1438 1439 1445 1453 1455 1453 1456 1469 1484 1491 1494 1499 1502 1506 1510 1513 1517 1521 1525 1529 1531 1533 1535 1536 1538 1540 1542
1449 1449 1447 1445 1444 1443 1442 1441 1440 1440 1440 1439 1439 1436 1432 1430 1429 1427 1425 1424 1425 1422 1421 1421 1419 1417 1417 1417 1420 1422 1419 1418 1419 1415 1413 1413 1409 1405 1404 1402 1402 1401 1399 1402 1404 1403 1414 1426 1423 1422 1432 1435 1431 1433 1437 1440 1444 1447 1450 1447 1445 1447 1449 1455 1461 1460 1463 1474 1482 1488 1495 1502 1504 1504 1508 1512 1515 1518 1521 1525 1529 1531 1533 1534 1536 1538 1540 1542
1450 1450 1448 1447 1445 1443 1442 1441 1440 1441 1440 1439 1437 1433 1431 1430 1429 1429 1428 1425 1425 1424 1422 1421 1420 1419 1420 1421 1425 1426 1420 1416 1418 1417 1415 1415 1413 1412 1411 1408 1407 1407 1402 1403 1406 1406 1415 1426 1425 1426 1438 1442 1439 1439 1443 1443 1444 1450 1457 1457 1454 1454 1456 1460 1462 1460 1465 1479 1491 1496 1499 1503 1504 1506 1509 1513 1515 1518 1521 1524 1528 1530 1532 1534 1535 1538 1540 1542
1450 1449 1449 1449 1447 1444 1443 1442 1441 1442 1441 1438 1436 1434 1433 1432 1430 1431 1432 1426 1423 1423 1422 1421 1421 1421 1423 1424 1425 1425 1420 1416 1416 1416 1415 1415 1413 1413 1413 1410 1408 1409 1407 1405 1408 1411 1416 1425 1430 1433 1442 1449 1449 1447 1444 1440 1443 1455 1463 1463 1460 1459 1459 1461 1465 1466 1467 1475 1484 1491 1494 1498 1502 1505 1509 1514 1516 1518 1521 1523 1526 1529 1531 1534 1536 1537 1539 1541